KI5IZM-13 Weather Reports


time (UTC)temp
C
wind
direction
speed
KPH
gust
KPH
rain 1hr
cm
rain 24hr
cm
rain mn
cm
humidity
%
barometer
mb
20260505184526 26 249 4.8 20.9 0.00 0.00 0.00 77 1007.7
20260505183039 26 276 8.0 29.0 0.00 0.00 0.00 76 1007.9
20260505181525 26 87 4.8 20.9 0.00 0.00 0.00 77 1007.8
20260505180035 26 113 6.4 25.7 0.00 0.00 0.00 76 1008.0
20260505174530 25 284 4.8 17.7 0.00 0.00 0.00 77 1008.0
20260505173034 25 184 6.4 20.9 0.00 0.00 0.00 78 1008.0
20260505171533 25 246 6.4 25.7 0.00 0.00 0.00 79 1008.1
20260505170026 24 263 4.8 27.4 0.00 0.00 0.00 80 1008.4
20260505164535 24 240 6.4 20.9 0.00 0.00 0.00 80 1008.3
20260505163024 24 228 3.2 19.3 0.00 0.00 0.00 81 1008.5
20260505161506 23 242 9.7 27.4 0.00 0.00 0.00 83 1008.4
20260505153027 22 146 1.6 24.1 0.00 0.00 0.00 83 1008.4
20260505151523 22 141 6.4 24.1 0.00 0.00 0.00 83 1008.4
20260505124513 21 257 1.6 24.1 0.00 0.00 0.00 87 1008.2
20260505123011 21 234 3.2 16.1 0.00 0.00 0.00 86 1008.1
20260505121521 21 181 3.2 17.7 0.00 0.00 0.00 86 1008.0
20260505120033 21 123 1.6 16.1 0.00 0.00 0.00 87 1007.7
20260505114507 21 266 6.4 20.9 0.00 0.00 0.00 86 1007.3
20260505113011 21 194 8.0 17.7 0.00 0.00 0.00 86 1007.3
20260505111519 21 259 4.8 25.7 0.00 0.00 0.00 86 1007.6
20260505101511 20 79 4.8 16.1 0.00 0.00 0.00 86 1007.3
20260505100018 20 218 4.8 20.9 0.00 0.00 0.00 86 1007.5
20260505094529 20 108 4.8 27.4 0.00 0.00 0.00 86 1007.4
20260505093004 20 298 0.0 17.7 0.00 0.00 0.00 86 1007.4
20260505091510 20 142 11.3 20.9 0.00 0.00 0.00 86 1007.4
20260505090026 20 139 3.2 12.9 0.00 0.00 0.00 87 1007.6
20260505084523 20 179 1.6 16.1 0.00 0.00 0.00 87 1008.0
20260505083026 19 186 3.2 19.3 0.00 0.00 0.00 87 1008.0
20260505081506 19 70 3.2 12.9 0.00 0.00 0.00 87 1008.1
20260505080010 19 146 4.8 12.9 0.00 0.00 0.00 86 1008.2
20260505074516 19 269 0.0 14.5 0.00 0.00 0.00 86 1008.4
20260505073021 19 107 3.2 17.7 0.00 0.00 0.00 86 1008.6
20260505071529 20 113 1.6 9.7 0.00 0.00 0.00 85 1008.6
20260505070028 20 166 1.6 17.7 0.00 0.00 0.00 85 1008.8
20260505064512 20 121 1.6 14.5 0.00 0.00 0.00 84 1008.7
20260505063020 20 179 1.6 11.3 0.00 0.00 0.00 83 1009.0
20260505061521 20 263 1.6 20.9 0.00 0.00 0.00 83 1009.2
20260505060027 20 121 1.6 12.9 0.00 0.00 0.00 82 1009.2
20260505054526 20 134 4.8 16.1 0.00 0.00 0.00 81 1009.0
20260505053018 20 132 1.6 20.9 0.00 0.00 0.00 81 1009.5
20260505051524 21 130 3.2 12.9 0.00 0.00 0.00 80 1009.3
20260505041507 21 271 3.2 14.5 0.00 0.00 0.00 76 1009.4
20260505040009 21 111 4.8 17.7 0.00 0.00 0.00 75 1009.4
20260505034510 22 155 1.6 12.9 0.00 0.00 0.00 74 1009.7
20260505033011 22 257 4.8 12.9 0.00 0.00 0.00 73 1009.4
20260505031511 22 211 0.0 22.5 0.00 0.00 0.00 72 1009.3
20260505030010 22 167 3.2 19.3 0.00 0.00 0.00 71 1009.2
20260505024513 22 104 1.6 12.9 0.00 0.00 0.00 70 1009.3
20260505023009 22 134 1.6 11.3 0.00 0.00 0.00 69 1009.2
20260505021512 22 114 0.0 8.0 0.00 0.00 0.00 68 1009.4
20260505020018 22 202 1.6 9.7 0.00 0.00 0.00 67 1009.2
20260505014513 23 152 0.0 6.4 0.00 0.00 0.00 66 1009.2
20260505013018 23 240 0.0 11.3 0.00 0.00 0.00 64 1009.1
20260505011511 23 132 0.0 8.0 0.00 0.00 0.00 63 1008.9
20260505010014 24 216 0.0 16.1 0.00 0.00 0.00 62 1009.1
20260505004531 24 148 0.0 9.7 0.00 0.00 0.00 60 1008.9
20260505003016 25 178 1.6 11.3 0.00 0.00 0.00 59 1008.9
20260505001518 25 135 1.6 12.9 0.00 0.00 0.00 57 1008.9
20260505000023 25 22 4.8 16.1 0.00 0.00 0.00 56 1009.2
20260504234516 25 283 1.6 17.7 0.00 0.00 0.00 55 1009.5
20260504233017 26 102 6.4 19.3 0.00 0.00 0.00 54 1009.7
20260504231519 26 19 3.2 24.1 0.00 0.00 0.00 54 1009.6
20260504230024 26 203 3.2 25.7 0.00 0.00 0.00 54 1009.7
20260504224515 26 133 4.8 19.3 0.00 0.00 0.00 53 1009.9
20260504223018 26 157 1.6 22.5 0.00 0.00 0.00 52 1010.0
20260504221523 26 138 8.0 19.3 0.00 0.00 0.00 51 1010.1
20260504220024 27 160 6.4 22.5 0.00 0.00 0.00 49 1010.2
20260504214524 26 262 4.8 20.9 0.00 0.00 0.00 49 1010.7
20260504213040 26 189 6.4 19.3 0.00 0.00 0.00 49 1010.9
20260504211521 26 120 9.7 22.5 0.00 0.00 0.00 47 1011.2
20260504210027 26 138 6.4 22.5 0.00 0.00 0.00 48 1011.6
20260504204527 26 219 3.2 17.7 0.00 0.00 0.00 47 1012.0
20260504203024 26 140 8.0 24.1 0.00 0.00 0.00 47 1012.2
20260504201532 26 132 9.7 20.9 0.00 0.00 0.00 47 1012.3
20260504200022 26 144 8.0 20.9 0.00 0.00 0.00 47 1012.7
20260504194526 26 144 9.7 22.5 0.00 0.00 0.00 46 1012.8
20260504193011 26 158 6.4 24.1 0.00 0.00 0.00 48 1012.9
20260504191519 25 121 6.4 27.4 0.00 0.00 0.00 48 1013.2
20260504190003 25 130 6.4 17.7 0.00 0.00 0.00 49 1013.5